StationID,Date,MaxTemp,MinTemp,Precipitation,Snowfall,SnowDepth
"USC00048474","1955-10-13",75.02,33.98,0.00,0.00,0.00
"USC00048474","1955-10-14",73.94,32.00,0.00,0.00,0.00
"USC00048474","1955-10-15",69.98,32.00,0.00,0.00,0.00
"USC00048474","1955-10-16",69.08,33.08,0.00,0.00,0.00
"USC00048474","1955-10-17",68.00,32.00,0.00,0.00,0.00
"USC00048474","1955-10-18",64.94,42.08,0.00,0.00,0.00
"USC00048474","1955-10-19",62.96,35.06,18.00,0.00,0.00
"USC00048474","1955-10-20",57.92,26.96,0.00,0.00,0.00
"USC00048474","1955-10-21",62.96,21.92,0.00,0.00,0.00
"USC00048474","1955-10-22",60.98,24.08,0.00,0.00,0.00
"USC00048474","1955-10-23",62.06,24.08,0.00,0.00,0.00
"USC00048474","1955-10-24",69.08,21.92,0.00,0.00,0.00
"USC00048474","1955-10-25",64.94,23.00,0.00,0.00,0.00
"USC00048474","1955-10-26",57.92,19.04,10.00,0.00,0.00
"USC00048474","1955-10-27",57.02,19.04,0.00,0.00,0.00
"USC00048474","1955-10-28",68.00,24.08,0.00,0.00,0.00
"USC00048474","1955-10-29",71.06,24.08,0.00,0.00,0.00
"USC00048474","1955-10-30",64.94,26.06,0.00,0.00,0.00
"USC00048474","1955-10-31",48.92,35.06,0.00,0.00,0.00
"USC00048474","1955-11-01",48.02,30.92,0.00,0.00,0.00
"USC00048474","1955-11-02",62.06,19.04,0.00,0.00,0.00
"USC00048474","1955-11-03",62.06,24.08,0.00,0.00,0.00
"USC00048474","1955-11-04",55.04,33.98,0.00,0.00,0.00
"USC00048474","1955-11-05",55.04,42.08,58.00,0.00,0.00
"USC00048474","1955-11-06",60.98,28.04,0.00,0.00,0.00
"USC00048474","1955-11-07",57.02,24.98,0.00,0.00,0.00
"USC00048474","1955-11-08",64.94,21.92,0.00,0.00,0.00
"USC00048474","1955-11-09",62.96,26.06,0.00,0.00,0.00
"USC00048474","1955-11-10",68.00,24.98,0.00,0.00,0.00
"USC00048474","1955-11-11",53.96,28.04,0.00,0.00,0.00
"USC00048474","1955-11-12",37.04,26.06,0.00,0.00,0.00
"USC00048474","1955-11-13",33.08,24.08,224.00,300.00,305.00
"USC00048474","1955-11-14",28.94,19.04,99.00,107.00,406.00
"USC00048474","1955-11-15",33.98,14.00,0.00,0.00,356.00
"USC00048474","1955-11-16",30.02,15.08,196.00,180.00,533.00
"USC00048474","1955-11-17",39.02,21.92,147.00,89.00,635.00
"USC00048474","1955-11-18",41.00,21.92,137.00,0.00,457.00
"USC00048474","1955-11-19",48.92,30.02,74.00,0.00,381.00
"USC00048474","1955-11-20",48.02,30.92,282.00,0.00,51.00
"USC00048474","1955-11-21",42.08,21.92,292.00,46.00,102.00
"USC00048474","1955-11-22",37.04,3.02,0.00,0.00,102.00
"USC00048474","1955-11-23",30.02,12.02,91.00,97.00,203.00
"USC00048474","1955-11-24",46.04,23.00,0.00,0.00,178.00
"USC00048474","1955-11-25",37.04,12.02,0.00,0.00,178.00
"USC00048474","1955-11-26",53.06,21.92,0.00,0.00,127.00
"USC00048474","1955-11-27",48.92,19.94,0.00,0.00,102.00
"USC00048474","1955-11-28",51.08,19.94,0.00,0.00,102.00
"USC00048474","1955-11-29",48.92,21.92,0.00,0.00,76.00
"USC00048474","1955-11-30",44.96,19.94,0.00,0.00,
"USC00048474","1955-12-06",41.00,33.98,460.00,0.00,254.00
"USC00048474","1955-12-07",44.06,10.94,0.00,0.00,254.00
"USC00048474","1955-12-08",42.98,19.94,122.00,107.00,356.00
"USC00048474","1955-12-09",42.98,30.92,157.00,0.00,305.00
"USC00048474","1955-12-10",44.96,17.96,0.00,0.00,
"USC00048474","1955-12-11",48.02,21.02,0.00,0.00,
"USC00048474","1955-12-12",,,0.00,0.00,
"USC00048474","1955-12-13",50.00,19.94,0.00,0.00,
"USC00048474","1955-12-14",53.96,24.08,0.00,0.00,
"USC00048474","1955-12-15",46.04,26.06,,,356.00
"USC00048474","1955-12-16",37.94,28.94,79.00,28.00,381.00
"USC00048474","1955-12-17",37.94,30.02,114.00,51.00,432.00
"USC00048474","1955-12-18",37.94,32.00,127.00,165.00,610.00
"USC00048474","1955-12-19",37.94,32.00,826.00,241.00,914.00
"USC00048474","1955-12-20",39.02,32.00,787.00,76.00,762.00
"USC00048474","1955-12-21",42.98,33.08,127.00,0.00,610.00
"USC00048474","1955-12-22",42.98,37.04,1219.00,0.00,254.00
"USC00048474","1955-12-23",42.08,33.98,1295.00,216.00,102.00
"USC00048474","1955-12-24",35.06,23.00,975.00,965.00,813.00
"USC00048474","1955-12-25",37.04,24.08,18.00,0.00,762.00
"USC00048474","1955-12-26",35.96,30.02,213.00,305.00,965.00
"USC00048474","1955-12-27",32.00,3.02,467.00,508.00,1372.00
"USC00048474","1955-12-28",23.00,-2.02,119.00,381.00,1575.00
"USC00048474","1955-12-29",21.02,3.92,20.00,152.00,1524.00
"USC00048474","1955-12-30",26.96,3.02,8.00,25.00,1473.00
"USC00048474","1955-12-31",26.96,8.06,46.00,102.00,1372.00
"USC00048474","1956-02-01",33.08,-14.08,0.00,0.00,1676.00
"USC00048474","1956-02-02",32.00,-13.00,0.00,0.00,1676.00
"USC00048474","1956-02-03",42.08,-14.98,0.00,0.00,1676.00
"USC00048474","1956-02-04",50.00,10.04,0.00,0.00,1524.00
"USC00048474","1956-02-05",41.00,15.08,0.00,0.00,1422.00
"USC00048474","1956-02-06",35.96,19.94,0.00,3.00,1422.00
"USC00048474","1956-02-07",42.08,3.02,0.00,0.00,1422.00
"USC00048474","1956-02-08",37.94,15.98,0.00,0.00,1422.00
"USC00048474","1956-02-09",44.06,-2.02,0.00,0.00,1397.00
"USC00048474","1956-02-10",44.06,8.06,0.00,0.00,1397.00
"USC00048474","1956-02-11",42.98,6.98,0.00,0.00,1397.00
"USC00048474","1956-02-12",48.02,10.94,0.00,0.00,1397.00
"USC00048474","1956-02-13",46.04,12.92,0.00,0.00,1397.00
"USC00048474","1956-02-14",46.94,10.04,0.00,0.00,1397.00
"USC00048474","1956-02-15",46.04,12.02,0.00,0.00,1397.00
"USC00048474","1956-02-16",39.92,-5.08,0.00,0.00,1397.00
"USC00048474","1956-02-17",32.00,3.02,0.00,0.00,1422.00
"USC00048474","1956-02-18",32.00,-7.06,127.00,127.00,1524.00
"USC00048474","1956-02-19",26.06,14.00,262.00,152.00,1676.00
"USC00048474","1956-02-20",32.00,24.08,508.00,508.00,2184.00
"USC00048474","1956-02-21",39.92,28.04,0.00,0.00,2032.00
"USC00048474","1956-02-22",39.02,30.02,79.00,25.00,2057.00
"USC00048474","1956-02-23",35.06,19.94,406.00,381.00,2438.00
"USC00048474","1956-02-24",28.94,10.04,99.00,13.00,2438.00
"USC00048474","1956-02-25",28.04,15.08,544.00,89.00,2540.00
"USC00048474","1956-02-26",30.02,15.08,556.00,51.00,2591.00
"USC00048474","1956-02-27",37.94,1.94,0.00,0.00,2489.00
"USC00048474","1956-02-28",39.92,1.94,0.00,0.00,2438.00
"USC00048474","1956-02-29",39.02,24.08,71.00,0.00,2438.00
"USC00048474","1956-03-01",48.02,1.94,0.00,0.00,2337.00
"USC00048474","1956-03-02",46.04,15.08,0.00,0.00,2286.00
"USC00048474","1956-03-03",42.08,30.92,0.00,0.00,2184.00
"USC00048474","1956-03-04",35.96,17.96,0.00,0.00,2134.00
"USC00048474","1956-03-05",37.94,19.04,902.00,356.00,2489.00
"USC00048474","1956-03-06",21.92,-5.08,0.00,25.00,2515.00
"USC00048474","1956-03-07",46.04,-5.08,0.00,0.00,2438.00
"USC00048474","1956-03-08",48.02,19.04,0.00,0.00,2337.00
"USC00048474","1956-03-09",48.92,8.06,0.00,0.00,2286.00
"USC00048474","1956-03-10",51.98,10.04,0.00,0.00,2235.00
"USC00048474","1956-03-11",37.94,17.96,0.00,0.00,2235.00
"USC00048474","1956-03-12",44.06,8.06,0.00,0.00,2235.00
"USC00048474","1956-03-13",55.04,10.94,0.00,0.00,2184.00
"USC00048474","1956-03-14",48.92,5.00,0.00,0.00,2184.00
"USC00048474","1956-03-15",48.02,5.00,0.00,0.00,2134.00
"USC00048474","1956-03-16",50.00,12.92,0.00,0.00,2083.00
"USC00048474","1956-03-17",51.98,5.00,0.00,0.00,1981.00
"USC00048474","1956-03-18",53.96,15.08,0.00,0.00,1930.00
"USC00048474","1956-03-19",46.94,24.08,0.00,0.00,1880.00
"USC00048474","1956-03-20",53.06,6.08,0.00,0.00,1880.00
"USC00048474","1956-03-21",48.02,19.94,0.00,0.00,1778.00
"USC00048474","1956-03-22",53.06,28.04,0.00,0.00,1727.00
"USC00048474","1956-03-23",57.92,21.92,0.00,0.00,1676.00
"USC00048474","1956-03-24",57.92,21.92,0.00,0.00,1626.00
"USC00048474","1956-03-25",53.06,28.04,0.00,0.00,1524.00
"USC00048474","1956-03-26",42.98,30.02,0.00,0.00,1473.00
"USC00048474","1956-03-27",44.96,10.94,0.00,0.00,1473.00
"USC00048474","1956-03-28",51.98,15.08,0.00,0.00,1422.00
"USC00048474","1956-03-29",57.02,21.02,0.00,0.00,1372.00
"USC00048474","1956-03-30",48.02,30.92,0.00,0.00,1372.00
"USC00048474","1956-03-31",37.94,26.06,0.00,0.00,1372.00
"USC00048474","1956-06-01",,,0.00,0.00,0.00
"USC00048474","1956-06-02",,,0.00,0.00,0.00
"USC00048474","1956-06-03",,,0.00,0.00,0.00
"USC00048474","1956-06-04",,,0.00,0.00,0.00
"USC00048474","1956-06-05",,,0.00,0.00,0.00
"USC00048474","1956-06-06",,,0.00,0.00,0.00
"USC00048474","1956-06-07",,,0.00,0.00,0.00
"USC00048474","1956-06-08",,,0.00,0.00,0.00
"USC00048474","1956-06-09",,,0.00,0.00,0.00
"USC00048474","1956-06-10",,,0.00,0.00,0.00
"USC00048474","1956-06-11",,,0.00,0.00,0.00
"USC00048474","1956-06-12",,,0.00,0.00,0.00
"USC00048474","1956-06-13",,,0.00,0.00,0.00
"USC00048474","1956-06-14",,,0.00,0.00,0.00
"USC00048474","1956-06-15",,,,0.00,0.00
"USC00048474","1956-06-16",,,0.00,0.00,0.00
"USC00048474","1956-06-17",71.96,30.92,0.00,0.00,0.00
"USC00048474","1956-06-18",69.98,35.06,0.00,0.00,0.00
"USC00048474","1956-06-19",64.94,37.04,3.00,0.00,0.00
"USC00048474","1956-06-20",64.94,28.04,0.00,0.00,0.00
"USC00048474","1956-06-21",73.94,28.94,0.00,0.00,0.00
"USC00048474","1956-06-22",78.08,35.96,0.00,0.00,0.00
"USC00048474","1956-06-23",75.92,35.96,0.00,0.00,0.00
"USC00048474","1956-06-24",78.08,35.06,0.00,0.00,0.00
"USC00048474","1956-06-25",80.06,33.08,0.00,0.00,0.00
"USC00048474","1956-06-26",86.00,39.02,0.00,0.00,0.00
"USC00048474","1956-06-27",87.08,39.92,0.00,0.00,0.00
"USC00048474","1956-06-28",89.96,44.06,0.00,0.00,0.00
"USC00048474","1956-06-29",89.06,41.00,0.00,0.00,0.00
"USC00048474","1956-06-30",82.94,35.06,0.00,0.00,0.00
"USC00048474","1956-07-01",78.98,32.00,0.00,0.00,0.00
"USC00048474","1956-07-02",75.02,32.00,0.00,0.00,0.00
"USC00048474","1956-07-03",69.98,33.08,0.00,0.00,0.00
"USC00048474","1956-07-04",69.98,30.02,0.00,0.00,0.00
"USC00048474","1956-07-05",71.96,35.96,0.00,0.00,0.00
"USC00048474","1956-07-06",89.96,30.02,0.00,0.00,0.00
"USC00048474","1956-07-07",84.92,33.98,0.00,0.00,0.00
"USC00048474","1956-07-08",82.94,39.92,0.00,0.00,0.00
"USC00048474","1956-07-09",80.06,44.06,0.00,0.00,0.00
"USC00048474","1956-07-10",82.94,37.94,0.00,0.00,0.00
"USC00048474","1956-07-11",80.06,33.98,0.00,0.00,0.00
"USC00048474","1956-07-12",68.00,41.00,0.00,0.00,0.00
"USC00048474","1956-07-13",69.08,39.92,0.00,0.00,0.00
"USC00048474","1956-07-14",71.96,42.08,0.00,0.00,0.00
"USC00048474","1956-07-15",75.02,42.08,0.00,0.00,0.00
"USC00048474","1956-07-16",89.96,42.98,0.00,0.00,0.00
"USC00048474","1956-07-17",84.92,44.96,0.00,0.00,0.00
"USC00048474","1956-07-18",80.06,46.04,0.00,0.00,0.00
"USC00048474","1956-07-19",73.04,51.08,0.00,0.00,0.00
"USC00048474","1956-07-20",80.06,46.94,30.00,0.00,0.00
"USC00048474","1956-07-21",75.02,48.92,0.00,0.00,0.00
"USC00048474","1956-07-22",80.96,42.08,0.00,0.00,0.00
"USC00048474","1956-07-23",84.02,44.96,18.00,0.00,0.00
"USC00048474","1956-07-24",84.92,44.96,23.00,0.00,0.00
"USC00048474","1956-07-25",78.08,50.00,20.00,0.00,0.00
"USC00048474","1956-07-26",80.06,53.06,51.00,0.00,0.00
"USC00048474","1956-07-27",78.08,48.92,0.00,0.00,0.00
"USC00048474","1956-07-28",77.00,53.06,0.00,0.00,0.00
"USC00048474","1956-07-29",78.08,44.96,0.00,0.00,0.00
"USC00048474","1956-07-30",73.94,39.92,0.00,0.00,0.00
"USC00048474","1956-07-31",84.92,33.08,0.00,0.00,0.00
"USC00048474","1956-09-01",82.04,39.92,0.00,0.00,0.00
"USC00048474","1956-09-02",80.96,39.02,0.00,0.00,0.00
"USC00048474","1956-09-03",80.06,39.02,0.00,0.00,0.00
"USC00048474","1956-09-04",80.96,37.04,0.00,0.00,0.00
"USC00048474","1956-09-05",77.00,37.94,0.00,0.00,0.00
"USC00048474","1956-09-06",78.08,35.96,0.00,0.00,0.00
"USC00048474","1956-09-07",78.08,35.06,0.00,0.00,0.00
"USC00048474","1956-09-08",78.08,35.06,0.00,0.00,0.00
"USC00048474","1956-09-09",75.92,35.96,0.00,0.00,0.00
"USC00048474","1956-09-10",73.94,59.00,0.00,0.00,0.00
"USC00048474","1956-09-11",69.08,42.98,0.00,0.00,0.00
"USC00048474","1956-09-12",68.00,35.96,0.00,0.00,0.00
"USC00048474","1956-09-13",68.00,33.08,0.00,0.00,0.00
"USC00048474","1956-09-14",71.96,32.00,0.00,0.00,0.00
"USC00048474","1956-09-15",73.94,33.08,0.00,0.00,0.00
"USC00048474","1956-09-16",75.02,30.02,0.00,0.00,0.00
"USC00048474","1956-09-17",82.04,28.94,0.00,0.00,0.00
"USC00048474","1956-09-18",78.08,48.02,0.00,0.00,0.00
"USC00048474","1956-09-19",66.02,32.00,137.00,0.00,0.00
"USC00048474","1956-09-20",66.92,32.00,0.00,0.00,0.00
"USC00048474","1956-09-21",62.96,32.00,0.00,0.00,0.00
"USC00048474","1956-09-22",68.00,28.94,0.00,0.00,0.00
"USC00048474","1956-09-23",73.94,32.00,0.00,0.00,0.00
"USC00048474","1956-09-24",75.02,35.06,0.00,0.00,0.00
"USC00048474","1956-09-25",73.94,33.98,0.00,0.00,0.00
"USC00048474","1956-09-26",71.96,35.06,0.00,0.00,0.00
"USC00048474","1956-09-27",66.92,35.06,10.00,0.00,0.00
"USC00048474","1956-09-28",71.96,32.00,0.00,0.00,0.00
"USC00048474","1956-09-29",73.04,30.92,0.00,0.00,0.00
"USC00048474","1956-09-30",69.08,30.92,0.00,0.00,0.00
"USC00048474","1956-10-01",71.96,30.02,0.00,0.00,0.00
"USC00048474","1956-10-02",68.00,37.04,0.00,0.00,0.00
"USC00048474","1956-10-03",69.08,32.00,0.00,0.00,0.00
"USC00048474","1956-10-04",62.96,42.98,38.00,0.00,0.00
"USC00048474","1956-10-05",66.92,32.00,0.00,0.00,0.00
"USC00048474","1956-10-06",69.08,35.06,0.00,0.00,0.00
"USC00048474","1956-10-07",66.02,37.04,,0.00,0.00
"USC00048474","1956-10-08",55.94,39.92,,0.00,0.00
"USC00048474","1956-10-09",64.04,28.94,0.00,0.00,0.00
"USC00048474","1956-10-10",55.94,35.06,457.00,0.00,0.00
"USC00048474","1956-10-11",42.08,32.00,28.00,0.00,0.00
"USC00048474","1956-10-12",53.06,26.06,0.00,0.00,0.00
"USC00048474","1956-10-13",60.08,23.00,0.00,0.00,0.00
"USC00048474","1956-10-14",62.96,21.92,0.00,0.00,0.00
"USC00048474","1956-10-15",66.02,26.06,0.00,0.00,0.00
"USC00048474","1956-10-16",66.92,24.08,0.00,0.00,0.00
"USC00048474","1956-10-17",66.02,24.08,0.00,0.00,0.00
"USC00048474","1956-10-18",57.92,30.02,51.00,0.00,0.00
"USC00048474","1956-10-19",64.04,24.08,0.00,0.00,0.00
"USC00048474","1956-10-20",64.94,26.06,0.00,0.00,0.00
"USC00048474","1956-10-21",62.06,26.06,0.00,0.00,0.00
"USC00048474","1956-10-22",55.94,26.96,0.00,0.00,0.00
"USC00048474","1956-10-23",46.04,23.00,152.00,203.00,203.00
"USC00048474","1956-10-24",51.08,5.00,0.00,0.00,
"USC00048474","1956-10-25",48.92,6.08,0.00,0.00,
"USC00048474","1956-10-26",42.08,24.08,406.00,0.00,
"USC00048474","1956-10-27",46.94,24.98,64.00,0.00,
"USC00048474","1956-10-28",37.04,6.98,150.00,203.00,203.00
"USC00048474","1956-10-29",37.04,3.92,0.00,0.00,
"USC00048474","1956-10-30",37.04,30.02,,,
"USC00048474","1956-10-31",33.98,21.92,,,356.00
"USC00048474","1957-02-01",28.94,-2.02,,,686.00
"USC00048474","1957-02-02",26.96,-14.08,,,660.00
"USC00048474","1957-02-03",24.08,17.96,0.00,0.00,635.00
"USC00048474","1957-02-04",26.96,-2.02,0.00,0.00,635.00
"USC00048474","1957-02-05",39.02,12.02,0.00,0.00,610.00
"USC00048474","1957-02-06",32.00,15.98,0.00,0.00,610.00
"USC00048474","1957-02-07",33.08,14.00,297.00,127.00,635.00
"USC00048474","1957-02-08",33.98,28.94,165.00,102.00,838.00
"USC00048474","1957-02-09",35.06,8.96,91.00,76.00,914.00
"USC00048474","1957-02-10",39.92,19.04,0.00,0.00,914.00
"USC00048474","1957-02-11",48.92,26.06,30.00,25.00,940.00
"USC00048474","1957-02-12",55.94,35.96,38.00,0.00,838.00
"USC00048474","1957-02-13",48.02,33.98,46.00,0.00,762.00
"USC00048474","1957-02-14",46.94,26.96,20.00,0.00,711.00
"USC00048474","1957-02-15",48.92,26.96,0.00,0.00,686.00
"USC00048474","1957-02-16",46.04,32.00,46.00,0.00,660.00
"USC00048474","1957-02-17",46.04,28.04,18.00,0.00,610.00
"USC00048474","1957-02-18",44.06,28.04,0.00,0.00,533.00
"USC00048474","1957-02-19",42.08,26.96,0.00,0.00,533.00
"USC00048474","1957-02-20",46.04,26.06,0.00,0.00,533.00
"USC00048474","1957-02-21",37.94,3.92,152.00,102.00,660.00
"USC00048474","1957-02-22",33.98,17.96,94.00,76.00,737.00
"USC00048474","1957-02-23",44.06,21.92,277.00,229.00,965.00
"USC00048474","1957-02-24",48.02,32.00,203.00,102.00,1067.00
"USC00048474","1957-02-25",44.06,33.98,84.00,0.00,940.00
"USC00048474","1957-02-26",44.06,32.00,48.00,0.00,864.00
"USC00048474","1957-02-27",44.06,30.92,69.00,,864.00
"USC00048474","1957-02-28",37.94,32.00,41.00,25.00,889.00
"USC00048474","1957-03-01",44.06,32.00,122.00,102.00,991.00
"USC00048474","1957-03-02",39.92,28.04,0.00,0.00,991.00
"USC00048474","1957-03-03",37.94,32.00,0.00,0.00,991.00
"USC00048474","1957-03-04",33.98,26.96,91.00,178.00,1168.00
"USC00048474","1957-03-05",30.92,24.08,33.00,25.00,1194.00
"USC00048474","1957-03-06",44.06,26.96,5.00,0.00,1194.00
"USC00048474","1957-03-07",46.04,37.04,0.00,0.00,1194.00
"USC00048474","1957-03-08",50.00,42.08,0.00,0.00,1168.00
"USC00048474","1957-03-09",46.04,26.06,38.00,51.00,1219.00
"USC00048474","1957-03-10",37.04,32.00,58.00,25.00,1245.00
"USC00048474","1957-03-11",39.02,33.98,0.00,0.00,1194.00
"USC00048474","1957-03-12",33.98,10.94,107.00,25.00,1219.00
"USC00048474","1957-03-13",35.96,17.96,28.00,0.00,1168.00
"USC00048474","1957-03-14",41.00,32.00,0.00,0.00,1118.00
"USC00048474","1957-03-15",37.94,30.92,23.00,,1041.00
"USC00048474","1957-03-16",39.02,30.92,36.00,,965.00
"USC00048474","1957-03-17",44.06,35.06,0.00,0.00,940.00
"USC00048474","1957-03-18",42.98,28.94,0.00,0.00,889.00
"USC00048474","1957-03-19",46.04,32.00,0.00,0.00,889.00
"USC00048474","1957-03-20",42.08,35.96,0.00,0.00,864.00
"USC00048474","1957-03-21",37.94,26.06,79.00,152.00,1016.00
"USC00048474","1957-03-22",39.02,24.08,15.00,25.00,1041.00
"USC00048474","1957-03-23",48.02,33.08,0.00,0.00,965.00
"USC00048474","1957-03-24",48.92,35.96,0.00,0.00,914.00
"USC00048474","1957-03-25",42.08,30.92,0.00,0.00,914.00
"USC00048474","1957-03-26",44.06,26.06,0.00,0.00,889.00
"USC00048474","1957-03-27",46.04,30.92,0.00,0.00,813.00
"USC00048474","1957-03-28",42.08,26.96,41.00,25.00,838.00
"USC00048474","1957-03-29",46.94,30.92,53.00,0.00,787.00
"USC00048474","1957-03-30",37.94,21.02,290.00,0.00,762.00
"USC00048474","1957-03-31",33.08,17.96,5.00,,787.00
"USC00048474","1957-04-01",46.94,37.04,,,940.00
"USC00048474","1957-04-02",44.96,33.98,0.00,0.00,940.00
"USC00048474","1957-04-03",53.06,37.94,0.00,0.00,889.00
"USC00048474","1957-04-04",51.98,35.96,0.00,0.00,838.00
"USC00048474","1957-04-05",55.94,37.94,0.00,0.00,813.00
"USC00048474","1957-04-06",48.02,30.92,0.00,0.00,
"USC00048474","1957-04-07",42.08,28.94,290.00,28.00,838.00
"USC00048474","1957-04-08",39.92,26.06,46.00,20.00,787.00
"USC00048474","1957-04-09",44.96,30.92,0.00,0.00,762.00
"USC00048474","1957-04-10",55.04,33.08,0.00,0.00,711.00
"USC00048474","1957-04-11",57.92,32.00,0.00,0.00,660.00
"USC00048474","1957-04-12",55.94,33.08,0.00,0.00,635.00
"USC00048474","1957-04-13",57.02,32.00,0.00,0.00,584.00
"USC00048474","1957-04-14",55.94,26.96,323.00,76.00,660.00
"USC00048474","1957-04-15",42.08,28.94,38.00,51.00,635.00
"USC00048474","1957-04-16",39.02,28.94,15.00,38.00,660.00
"USC00048474","1957-04-17",46.04,33.08,277.00,20.00,686.00
"USC00048474","1957-04-18",39.92,35.06,0.00,0.00,635.00
"USC00048474","1957-04-19",46.94,35.96,0.00,0.00,610.00
"USC00048474","1957-04-20",46.04,35.06,23.00,25.00,584.00
"USC00048474","1957-04-21",48.02,32.00,0.00,0.00,533.00
"USC00048474","1957-04-22",48.02,33.08,0.00,0.00,508.00
"USC00048474","1957-04-23",51.98,33.98,0.00,0.00,457.00
"USC00048474","1957-04-24",55.94,33.08,0.00,0.00,432.00
"USC00048474","1957-04-25",48.92,28.94,,,381.00
"USC00048474","1957-04-26",60.98,35.06,0.00,0.00,305.00
"USC00048474","1957-04-27",62.06,37.04,0.00,0.00,254.00
"USC00048474","1957-04-28",64.94,33.98,0.00,0.00,203.00
"USC00048474","1957-04-29",66.92,35.06,0.00,0.00,178.00
"USC00048474","1957-04-30",64.04,37.04,0.00,0.00,102.00
"USC00048474","1957-05-01",53.96,39.92,0.00,0.00,0.00
"USC00048474","1957-05-02",44.96,33.08,160.00,,0.00
"USC00048474","1957-05-03",55.94,24.08,0.00,0.00,0.00
"USC00048474","1957-05-04",64.04,28.04,0.00,0.00,0.00
"USC00048474","1957-05-05",69.08,30.92,0.00,0.00,0.00
"USC00048474","1957-05-06",68.00,32.00,0.00,0.00,0.00
"USC00048474","1957-05-07",55.04,37.94,30.00,0.00,0.00
"USC00048474","1957-05-08",46.04,33.98,13.00,0.00,0.00
"USC00048474","1957-05-09",50.00,30.02,0.00,0.00,0.00
"USC00048474","1957-05-10",50.00,35.96,48.00,0.00,0.00
"USC00048474","1957-05-11",50.00,32.00,5.00,0.00,0.00
"USC00048474","1957-05-12",44.96,37.94,0.00,0.00,0.00
"USC00048474","1957-05-13",48.02,35.06,30.00,,0.00
"USC00048474","1957-05-14",46.04,30.02,94.00,,0.00
"USC00048474","1957-05-15",60.08,24.98,0.00,,0.00
"USC00048474","1957-05-16",62.06,30.02,0.00,0.00,0.00
"USC00048474","1957-05-17",55.94,32.00,0.00,0.00,0.00
"USC00048474","1957-05-18",42.08,32.00,84.00,0.00,0.00
"USC00048474","1957-05-19",37.94,28.04,414.00,,51.00
"USC00048474","1957-05-20",39.92,28.04,,,0.00
"USC00048474","1957-05-21",53.96,32.00,,0.00,0.00
"USC00048474","1957-05-22",46.94,30.92,,,0.00
"USC00048474","1957-05-23",50.00,33.08,,0.00,0.00
"USC00048474","1957-05-24",60.98,30.02,0.00,0.00,0.00
"USC00048474","1957-05-25",69.98,33.98,0.00,0.00,0.00
"USC00048474","1957-05-26",69.98,37.04,0.00,0.00,0.00
"USC00048474","1957-05-27",73.94,39.92,0.00,0.00,0.00
"USC00048474","1957-05-28",66.02,37.94,,0.00,0.00
"USC00048474","1957-05-29",71.06,35.96,,0.00,0.00
"USC00048474","1957-05-30",66.92,35.96,,0.00,0.00
"USC00048474","1957-05-31",71.96,39.92,,0.00,0.00
"USC00048474","1957-06-01",78.08,42.98,0.00,0.00,0.00
"USC00048474","1957-06-02",78.08,37.04,0.00,0.00,0.00
"USC00048474","1957-06-03",82.04,35.96,0.00,0.00,0.00
"USC00048474","1957-06-04",84.02,41.00,0.00,0.00,0.00
"USC00048474","1957-06-05",73.04,46.04,0.00,0.00,0.00
"USC00048474","1957-06-06",75.92,35.96,0.00,0.00,0.00
"USC00048474","1957-06-07",73.94,37.04,0.00,0.00,0.00
"USC00048474","1957-06-08",69.98,46.04,0.00,0.00,0.00
"USC00048474","1957-06-09",51.98,44.96,0.00,0.00,0.00
"USC00048474","1957-06-10",62.96,39.92,0.00,0.00,0.00
"USC00048474","1957-06-11",73.94,33.98,0.00,0.00,0.00
"USC00048474","1957-06-12",64.04,39.92,0.00,0.00,0.00
"USC00048474","1957-06-13",64.04,35.96,0.00,0.00,0.00
"USC00048474","1957-06-14",60.08,26.96,0.00,0.00,0.00
"USC00048474","1957-06-15",57.92,30.02,0.00,0.00,0.00
"USC00048474","1957-06-16",62.96,28.94,0.00,0.00,0.00
"USC00048474","1957-06-17",73.94,30.92,0.00,0.00,0.00
"USC00048474","1957-06-18",78.98,35.06,0.00,0.00,0.00
"USC00048474","1957-06-19",73.94,39.92,0.00,0.00,0.00
"USC00048474","1957-06-20",68.00,46.04,0.00,0.00,0.00
"USC00048474","1957-06-21",78.08,35.06,0.00,0.00,0.00
"USC00048474","1957-06-22",77.00,35.96,0.00,0.00,0.00
"USC00048474","1957-06-23",84.92,39.02,0.00,0.00,0.00
"USC00048474","1957-06-24",84.02,39.92,0.00,0.00,0.00
"USC00048474","1957-06-25",84.92,42.08,0.00,0.00,0.00
"USC00048474","1957-06-26",86.00,41.00,0.00,0.00,0.00
"USC00048474","1957-06-27",89.06,44.06,0.00,0.00,0.00
"USC00048474","1957-06-28",84.02,46.94,0.00,0.00,0.00
"USC00048474","1957-06-29",82.04,42.98,0.00,0.00,0.00
"USC00048474","1957-06-30",78.08,42.08,0.00,0.00,0.00
"USC00048474","1957-07-01",75.92,50.00,0.00,0.00,0.00
"USC00048474","1957-07-02",75.92,55.04,0.00,0.00,0.00
"USC00048474","1957-07-03",78.98,42.08,0.00,0.00,0.00
"USC00048474","1957-07-04",84.92,41.00,0.00,0.00,0.00
"USC00048474","1957-07-05",80.06,42.98,0.00,0.00,0.00
"USC00048474","1957-07-06",69.08,50.00,0.00,0.00,0.00
"USC00048474","1957-07-07",75.02,39.92,58.00,0.00,0.00
"USC00048474","1957-07-08",80.96,37.94,0.00,0.00,0.00
"USC00048474","1957-07-09",82.94,37.94,0.00,0.00,0.00
"USC00048474","1957-07-10",78.98,42.08,0.00,0.00,0.00
"USC00048474","1957-07-11",78.08,37.94,0.00,0.00,0.00
"USC00048474","1957-07-12",75.92,41.00,0.00,0.00,0.00
"USC00048474","1957-07-13",71.06,53.06,0.00,0.00,0.00
"USC00048474","1957-07-14",71.96,37.94,0.00,0.00,0.00
"USC00048474","1957-07-15",80.96,33.08,0.00,0.00,0.00
"USC00048474","1957-07-16",80.96,37.94,0.00,0.00,0.00
"USC00048474","1957-07-17",78.08,39.02,0.00,0.00,0.00
"USC00048474","1957-07-18",75.02,42.08,0.00,0.00,0.00
"USC00048474","1957-07-19",75.92,42.08,0.00,0.00,0.00
"USC00048474","1957-07-20",75.92,35.96,0.00,0.00,0.00
"USC00048474","1957-07-21",71.96,48.92,0.00,0.00,0.00
"USC00048474","1957-07-22",73.04,37.94,0.00,0.00,0.00